Location: Pinhead Observatory
(34.4473°N, 118.1985°W)
Time: 16:06:37
(UTC-08:00)

CZ-4C R/B - Visible Passes

Search period start: 22 January 2018 00:00
Search period end: 01 February 2018 00:00
Orbit: 700 x 1303 km, 63.4° (Epoch: 22 January)

Date Brightness Start Highest point End Pass type
(mag) Time Alt. Az. Time Alt. Az. Time Alt. Az.
22 Jan 5.5 02:22:46 10° ENE 02:22:46 10° ENE 02:22:59 10° ENE visible
22 Jan 3.5 04:08:00 43° N 04:10:04 54° NE 04:17:55 10° SE visible
22 Jan 3.7 05:53:15 15° WNW 05:58:31 32° WSW 06:05:29 10° S visible
22 Jan 2.0 19:23:06 10° SW 19:28:07 77° WNW 19:28:18 76° NW visible
23 Jan 4.8 02:56:10 22° ENE 02:56:10 22° ENE 03:00:34 10° E visible
23 Jan 2.9 04:41:25 50° NW 04:43:44 80° WSW 04:51:52 10° SSE visible
23 Jan 4.5 06:27:57 10° WNW 06:31:35 14° WSW 06:35:19 10° SW visible
23 Jan 2.8 18:09:14 10° S 18:13:33 30° ESE 18:16:36 18° ENE visible
23 Jan 3.6 19:57:19 10° WSW 20:01:51 31° NW 20:01:51 31° NW visible
24 Jan 3.9 03:29:41 43° ENE 03:29:41 43° ENE 03:36:10 10° SE visible
24 Jan 3.4 05:14:56 33° W 05:17:08 39° WSW 05:24:31 10° S visible
24 Jan 1.9 18:41:41 10° SSW 18:46:42 84° ESE 18:50:06 24° NNE visible
24 Jan 4.7 20:33:06 10° WNW 20:35:21 14° NW 20:35:21 14° NW visible
25 Jan 5.5 02:18:02 11° E 02:18:02 11° E 02:18:19 10° E visible
25 Jan 3.1 04:03:18 71° SE 04:03:18 71° SE 04:10:25 10° SSE visible
25 Jan 4.2 05:48:34 17° W 05:50:17 18° WSW 05:55:16 10° SW visible
25 Jan 3.3 19:15:34 10° WSW 19:20:19 38° NW 19:23:32 21° N visible
26 Jan 4.9 02:51:43 20° ESE 02:51:43 20° ESE 02:54:19 10° ESE visible
26 Jan 3.4 04:37:00 44° SW 04:37:00 44° SW 04:43:26 10° S visible
26 Jan 2.0 18:00:23 10° SSW 18:05:18 65° ESE 18:10:52 10° NE visible
26 Jan 4.4 19:50:52 10° W 19:54:25 18° NW 19:56:52 14° NNW visible
27 Jan 4.4 03:25:28 28° SE 03:25:28 28° SE 03:28:54 10° SE visible
27 Jan 4.3 05:10:44 21° SW 05:10:44 21° SW 05:14:49 10° SSW visible
27 Jan 2.9 18:33:54 10° SW 18:38:48 48° NW 18:44:21 10° NNE visible
28 Jan 4.4 03:59:14 25° S 03:59:14 25° S 04:02:15 10° SSE visible
28 Jan 4.2 19:08:47 10° W 19:12:47 21° NW 19:17:11 10° N visible
29 Jan 4.8 04:33:01 14° SSW 04:33:01 14° SSW 04:34:08 10° SSW visible
29 Jan 2.6 17:52:20 10° SW 17:57:19 62° NW 18:02:59 10° NNE visible
29 Jan 4.9 19:46:19 10° NW 19:47:15 10° NNW 19:48:12 10° NNW visible
30 Jan 4.0 18:26:50 10° WSW 18:31:10 26° NW 18:35:59 10° N visible
31 Jan 4.7 19:03:11 10° WNW 19:05:30 13° NW 19:07:57 10° N visible
